Location: Zagreb
(45.8000°N, 16.0000°E)
Time: 00:54:51
(UTC+01:00)

Transit 2A Rocket - Pass Details

Date: 09 October 2020
Orbit: 586 x 916 km, 66.7° (Epoch: 28 October)

Event Time Altitude Azimuth Distance (km) Brightness Sun altitude
Rises 17:46:06 0° 275° (W) 3,552 10.1 5.0°
Reaches altitude 10° 17:49:49 10° 297° (WNW) 2,599 8.6 4.4°
Maximum altitude 17:53:19 16° 332° (NNW) 2,199 7.6 3.8°
Drops below altitude 10° 17:56:46 10° 8° (N) 2,535 7.5 3.2°
Sets 18:00:20 0° 30° (NNE) 3,419 7.9 2.6°
